Location: Champs
(48.8539°N, 2.6040°E)
Time: 05:41:39
(UTC+00:00)

IRAS Rocket - Pass Details

Date: 26 October 2021
Orbit: 847 x 878 km, 100.1° (Epoch: 04 December)

Event Time Altitude Azimuth Distance (km) Brightness Sun altitude
Rises 05:25:54 0° 169° (S) 3,461 7.6 -10.6°
Reaches altitude 10° 05:28:18 10° 172° (S) 2,526 6.9 -10.3°
Maximum altitude 05:33:54 68° 255° (WSW) 944 4.3 -9.3°
Drops below altitude 10° 05:39:30 10° 339° (NNW) 2,531 6.4 -8.4°
Sets 05:41:55 0° 342° (NNW) 3,469 7.1 -8.0°
